Temp
13 13 13 13 13 13 12 12 12 12 12 12 12 11 11 11 11 11 11 11 11 11 10 10 10 10 10 11 11 11 11 12 12 12 13 13 12 12 12 11 11 11 10 10 10 10 10 10 10 9 9 9 9 8 8 8 8 8 8 8 7 7 7 7 7 7 6 6 6
13 13 13 13 13 12 12 12 12 12 12 12 11 11 11 11 11 11 10 10 10 10 10 10 10 10 10 10 10 11 11 12 12 12 12 12 12 12 11 11 11 10 10 10 10 10 10 10 9 9 9 9 8 8 8 8 8 8 8 8 7 7 7 7 7 7 6 6 6
13 13 13 13 13 12 12 12 11 11 11 11 11 11 11 11 11 10 10 10 10 10 10 10 10 10 10 10 10 10 11 11 12 12 12 12 12 11 11 10 10 10 10 10 10 10 10 9 9 9 9 8 8 8 8 8 8 8 8 7 7 7 7 7 6 6 6 6 6
13 13 13 13 12 12 12 12 11 11 11 11 11 11 10 10 10 10 10 10 10 10 10 9 9 9 9 9 9 10 10 11 12 12 12 11 11 11 10 10 10 10 10 10 10 9 9 9 9 9 9 8 8 8 8 8 8 7 7 7 7 7 7 6 6 6 6 6 6
13 13 13 13 13 12 12 12 11 11 11 11 11 10 10 10 10 10 10 10 10 9 9 9 9 9 8 8 9 9 10 11 11 12 11 11 10 10 10 10 10 10 10 9 9 9 9 9 9 9 8 8 8 8 8 8 7 7 7 7 7 7 6 6 6 6 6 6 6
12 12 12 12 12 12 12 12 11 11 11 11 10 10 10 10 10 10 10 10 9 9 9 9 8 8 8 8 8 9 10 11 11 11 10 10 10 10 10 10 9 9 9 9 9 9 9 9 8 8 8 8 8 7 7 7 7 7 7 7 7 6 6 6 6 6 6 6 5
12 12 12 12 12 12 11 11 11 11 11 10 10 10 10 10 10 10 9 9 9 9 8 8 8 8 8 8 9 9 10 10 10 10 9 9 9 10 9 9 9 9 9 9 9 9 9 8 8 8 8 7 7 7 7 7 7 7 7 7 6 6 6 6 6 6 5 5 5
12 12 12 12 11 11 11 11 11 11 11 10 10 10 10 10 10 9 9 9 9 8 8 8 8 8 8 9 9 10 10 10 9 9 9 9 9 9 9 9 9 9 8 8 8 8 8 8 8 8 7 7 7 7 7 7 7 7 7 6 6 6 6 6 5 5 5 5 5
12 12 12 11 11 11 11 11 11 11 11 10 10 10 10 10 10 9 9 9 8 8 8 8 8 8 9 9 9 9 9 9 9 9 9 9 9 9 9 9 8 8 8 8 8 8 8 8 8 8 7 7 7 7 7 7 7 6 6 6 6 6 6 5 5 5 5 5 5
11 11 11 11 10 11 11 11 11 11 10 10 10 10 10 10 9 9 9 9 8 8 8 8 8 8 8 8 8 8 8 8 8 9 9 9 9 9 9 8 8 8 8 8 8 8 8 8 7 7 7 7 7 7 7 7 6 6 6 6 6 6 6 5 5 5 5 5 5
11 11 10 10 10 10 11 11 10 10 10 10 10 10 10 9 9 9 9 8 8 8 8 8 7 7 7 7 7 7 7 8 9 9 9 9 9 9 8 8 8 8 8 8 8 8 8 7 7 7 7 7 7 6 6 6 6 6 6 6 6 6 5 5 5 5 5 5 5
10 10 10 10 10 10 10 10 10 10 10 10 10 10 9 9 9 9 8 8 8 7 7 7 6 6 6 6 6 7 8 8 9 9 9 9 9 8 8 8 8 8 8 8 7 7 7 7 7 7 6 6 6 6 6 6 6 6 6 5 5 5 5 5 5 5 5 5 5
10 10 10 10 10 10 10 10 10 10 10 9 9 9 9 8 8 8 8 8 7 7 6 6 6 6 6 6 7 7 8 8 8 8 8 8 8 8 8 8 8 7 7 7 7 7 7 7 6 6 6 6 6 6 6 6 6 5 5 5 5 5 5 5 5 5 5 5 5
9 9 9 9 9 10 10 9 9 9 9 9 9 8 8 8 7 7 7 7 7 7 6 6 6 6 6 7 7 8 8 8 8 8 8 8 8 8 7 7 7 7 7 7 7 7 7 6 6 6 6 6 6 6 6 5 5 5 5 5 5 5 5 5 5 5 5 4 4
9 9 9 9 9 9 9 9 9 9 9 8 8 8 7 7 7 7 7 7 7 7 6 6 6 6 7 7 7 7 7 8 8 8 8 7 7 7 7 7 7 7 7 7 7 6 6 6 6 6 6 6 6 6 5 5 5 5 5 5 5 5 5 5 4 4 4 4 4
9 9 9 9 9 9 9 9 8 8 8 8 7 7 7 7 6 7 7 7 7 7 6 6 6 6 6 6 6 6 6 7 7 7 7 7 7 7 7 7 7 7 7 7 6 6 6 6 6 6 6 6 6 6 5 5 5 5 5 5 5 5 4 4 4 4 4 4 4
8 8 8 8 8 8 8 8 8 8 7 7 7 7 6 6 6 7 7 7 6 6 6 6 6 5 6 6 6 6 6 6 6 6 6 6 7 7 7 7 7 7 6 6 6 6 6 6 6 6 6 5 5 5 5 5 5 5 4 4 4 4 4 4 4 4 4 4 4
8 8 8 8 8 8 8 8 8 7 7 7 7 6 6 6 6 6 6 6 6 6 5 5 5 5 5 5 5 5 6 6 6 6 6 6 6 6 6 6 6 6 6 6 6 6 6 5 5 5 5 5 5 5 5 4 4 4 4 4 4 4 4 4 4 4 4 4 4
8 8 7 7 7 8 8 8 7 7 7 7 6 6 6 6 6 6 6 6 5 5 5 5 5 5 5 5 5 5 6 6 6 6 6 6 6 6 6 6 6 6 6 6 6 5 5 5 5 5 5 5 5 5 4 4 4 4 4 4 4 4 4 4 4 4 3 3 3
7 7 7 7 7 7 7 7 7 7 7 6 6 6 6 6 6 6 5 5 5 5 5 5 5 5 5 5 5 6 6 6 6 6 6 6 6 6 6 6 6 6 6 6 5 5 5 5 5 5 5 5 5 5 4 4 4 4 4 4 4 4 3 3 3 3 3 3 3
7 7 7 7 7 7 7 7 7 6 6 6 6 6 6 6 5 5 5 5 5 5 5 5 5 6 6 6 6 6 6 6 6 6 6 6 6 6 6 6 6 6 6 6 5 5 5 5 5 5 5 5 5 4 4 4 4 4 4 3 3 3 3 3 3 3 3 3 3
7 7 7 7 7 7 6 6 6 6 6 6 5 5 5 5 5 5 5 5 5 5 5 5 6 6 6 6 6 6 6 6 6 6 6 6 6 6 6 6 6 6 5 5 5 5 5 5 5 5 4 4 4 4 4 4 4 4 3 3 3 3 3 3 3 3 2 2 2
6 7 7 7 6 6 6 6 6 6 6 5 5 5 5 5 5 5 5 5 5 5 5 6 6 6 6 6 6 6 6 6 6 6 6 6 6 6 6 6 6 5 5 5 5 4 4 4 4 4 4 4 4 4 4 4 4 3 3 3 3 3 3 3 2 2 2 2 2
6 6 6 6 6 6 6 6 6 5 5 5 5 5 5 4 4 4 4 4 5 5 5 6 6 6 6 6 6 6 6 5 5 5 5 5 6 6 5 5 5 5 5 4 4 4 4 4 4 4 4 4 4 4 3 3 3 3 3 3 3 3 3 2 2 2 2 2 2
6 6 6 6 6 6 6 6 5 5 5 5 4 4 4 4 4 4 4 4 5 5 5 6 6 6 6 5 5 5 5 5 5 5 5 5 5 5 5 5 5 4 4 4 4 4 4 4 4 3 3 3 3 3 3 3 3 2 2 2 2 2 2 2 2 2 1 1 1
6 6 6 6 6 6 5 5 5 5 4 4 4 4 4 4 4 4 4 4 5 5 5 5 5 5 5 5 5 5 5 5 5 5 5 5 5 5 5 4 4 4 4 4 3 3 3 3 3 3 3 3 3 3 2 2 2 2 2 1 1 1 1 1 1 1 1 1 1
6 6 6 6 5 5 5 5 4 4 4 4 4 4 4 4 4 4 4 4 5 5 5 5 5 4 4 4 5 5 5 5 5 5 5 5 5 4 4 4 4 4 3 3 3 3 3 3 2 2 2 2 2 2 2 2 1 1 1 1 1 1 0 0 1 1 1 1 1
6 5 5 5 5 4 4 4 4 4 4 4 3 3 3 3 4 4 4 4 4 4 4 4 4 4 4 5 5 5 5 5 5 4 4 4 4 4 4 4 3 3 3 3 3 2 2 2 2 1 1 1 1 1 1 1 1 1 1 0 0 0 0 0 0 0 1 1 1
5 5 5 4 4 4 4 4 4 4 3 3 3 3 3 3 3 4 4 4 4 4 3 3 4 4 4 4 4 4 4 4 4 4 4 4 4 4 3 3 3 3 3 2 2 2 2 2 1 1 1 0 1 1 1 0 0 0 0 0 -0 -0 -0 -0 0 0 0 1 1
4 4 4 4 4 4 4 4 3 3 3 3 3 3 3 3 3 3 3 3 3 3 3 4 4 4 4 4 4 4 4 4 4 4 3 3 3 3 3 3 3 2 2 2 1 1 1 1 1 1 0 0 0 0 0 0 -0 -0 -0 -0 -0 -0 -0 -0 0 0 0 0 1
4 3 3 3 3 3 3 3 3 3 3 3 3 3 3 3 3 3 3 3 3 4 4 4 4 4 4 4 4 3 3 3 3 3 3 3 3 3 3 2 2 2 1 1 1 1 1 1 1 0 0 -0 -0 -0 -0 -0 -0 -1 -1 -1 -1 -1 -0 -0 -0 0 0 0 0
3 3 3 3 3 3 3 3 3 3 3 3 3 3 2 2 2 2 3 3 4 4 4 4 4 4 3 3 3 3 3 3 3 3 3 3 2 2 2 2 1 1 1 1 1 1 0 0 0 0 -0 -1 -1 -0 -1 -1 -1 -1 -1 -1 -1 -1 -0 -0 -0 -0 0 0 -0
2 2 2 2 2 2 2 2 2 2 2 2 2 2 2 2 2 2 3 3 4 4 4 4 3 3 3 3 3 3 3 3 3 3 2 2 2 2 1 1 1 1 1 1 1 0 0 0 -0 -0 -1 -1 -1 -1 -1 -1 -1 -1 -1 -1 -1 -1 -1 -0 -0 -0 -0 -0 -1
1 1 1 1 1 2 2 2 2 2 2 2 2 2 2 2 2 3 3 3 3 3 3 3 3 3 3 3 3 3 3 3 2 2 2 1 1 1 1 1 1 1 1 0 0 0 -0 -0 -0 -1 -1 -1 -1 -1 -1 -1 -1 -1 -1 -1 -1 -1 -1 -1 -1 -1 -1 -1 -1
0 0 0 1 1 1 1 1 1 1 1 1 2 2 2 2 3 3 3 3 3 3 3 3 3 3 3 3 3 3 2 2 2 1 1 1 1 1 1 1 1 0 0 0 0 -0 -0 -1 -1 -1 -1 -1 -1 -1 -1 -1 -2 -2 -1 -1 -1 -1 -1 -1 -1 -1 -1 -1 -1
-0 -0 -0 -0 -0 0 0 0 1 1 1 2 2 2 2 3 3 3 3 3 3 3 3 3 3 3 2 2 2 2 2 1 1 1 1 1 1 1 1 1 1 0 -0 -0 -0 -1 -1 -1 -1 -1 -1 -2 -2 -2 -2 -2 -2 -2 -2 -2 -1 -1 -1 -1 -1 -1 -2 -2 -2
-0 -0 -0 -0 -0 -0 -0 0 1 1 2 2 2 2 3 3 3 3 3 3 3 3 2 2 2 2 2 2 1 1 1 1 1 1 1 1 1 1 1 1 1 0 -0 -0 -1 -1 -1 -1 -1 -1 -2 -2 -2 -2 -2 -2 -2 -2 -2 -2 -2 -2 -2 -2 -2 -2 -2 -2 -2
-0 -0 -0 -0 -0 0 1 1 2 2 2 2 2 3 3 3 3 3 3 3 3 2 2 2 2 1 1 1 1 1 1 1 1 1 1 1 1 1 1 1 0 0 -0 -0 -1 -1 -1 -1 -1 -2 -2 -2 -2 -2 -2 -2 -2 -2 -2 -2 -2 -2 -2 -2 -2 -2 -2 -2 -3
0 0 0 0 1 1 1 2 2 2 2 2 2 2 3 3 3 2 2 3 2 2 2 2 1 1 1 1 1 1 1 1 1 1 1 1 1 1 0 0 0 0 -0 -1 -1 -1 -1 -1 -1 -2 -2 -2 -2 -2 -2 -2 -2 -2 -2 -2 -2 -2 -3 -3 -3 -3 -3 -3 -3
0 0 1 1 1 1 1 2 2 2 2 2 2 2 2 2 2 2 2 2 2 2 2 2 1 1 1 1 1 1 1 1 1 1 1 1 1 0 0 0 -0 -0 -0 -1 -1 -1 -1 -2 -2 -2 -2 -2 -2 -2 -3 -3 -3 -3 -3 -3 -3 -3 -3 -3 -3 -3 -3 -3 -3
0 0 0 1 1 1 1 2 2 2 2 2 2 2 2 2 2 2 2 2 2 2 2 2 1 1 1 1 1 1 1 1 1 1 1 0 0 0 0 -0 -0 -0 -1 -1 -1 -1 -1 -2 -2 -2 -2 -2 -2 -3 -3 -3 -3 -3 -3 -3 -3 -3 -3 -3 -3 -4 -4 -4 -3
Height
737 737 738 740 742 744 745 747 749 750 752 754 755 757 759 761 763 765 766 767 769 770 770 771 772 772 773 775 777 779 781 783 784 785 786 787 789 791 792 794 795 797 798 799 799 799 800 800 801 801 802 803 804 804 805 805 805 806 806 807 808 809 809 810 810 811 811 812 812
737 737 738 739 741 743 745 747 748 750 751 753 755 756 757 759 761 764 765 767 768 769 770 771 772 773 774 775 777 779 781 782 783 784 785 787 789 790 792 794 795 797 798 799 799 799 799 799 800 801 802 803 803 804 805 805 805 806 806 807 807 808 809 809 810 810 811 811 812
737 737 737 738 740 741 744 745 747 749 750 752 754 755 757 759 760 762 764 766 768 770 771 772 773 774 775 776 778 780 781 782 782 783 785 787 789 791 792 794 795 797 798 798 798 798 798 799 800 800 801 802 803 804 804 805 805 805 806 806 807 808 808 809 810 810 810 811 811
736 736 736 737 738 739 741 743 745 747 749 751 753 755 756 758 760 762 764 766 769 770 771 772 773 775 776 778 779 781 782 783 783 784 785 788 790 791 792 794 795 797 798 798 798 798 798 798 799 800 801 802 803 804 804 805 805 805 805 806 807 807 808 808 809 810 810 810 810
736 736 736 736 736 738 739 741 743 745 748 750 752 754 756 758 760 762 765 767 768 770 771 772 774 776 777 778 780 781 783 783 784 785 787 789 790 792 793 794 795 797 797 798 798 798 798 798 799 800 801 802 803 804 804 804 805 805 805 806 806 807 807 808 808 809 809 810 810
735 736 736 736 736 737 739 740 742 744 746 749 750 752 755 757 760 761 764 766 767 769 771 773 775 776 777 778 780 781 782 783 784 785 788 790 791 792 793 794 795 796 797 797 797 797 798 798 799 800 801 802 803 803 804 804 804 805 805 805 806 806 807 807 808 808 809 809 809
734 735 736 736 737 737 738 739 741 743 745 747 749 751 754 756 758 760 762 765 767 769 771 773 774 775 777 778 780 781 782 783 784 786 789 791 792 792 793 794 795 796 797 797 797 797 798 798 799 800 801 802 803 803 803 804 804 804 805 805 805 806 806 807 807 808 808 808 809
732 734 735 735 736 737 738 739 740 743 745 747 749 750 753 755 757 760 762 764 766 768 770 772 774 775 776 778 779 780 781 782 784 786 789 791 791 792 793 794 795 796 796 797 797 797 797 798 799 800 801 802 803 803 803 803 804 804 804 805 805 805 806 806 806 807 807 807 808
731 733 734 735 737 738 739 740 740 742 744 746 748 750 753 755 757 759 761 763 766 768 770 772 774 775 776 777 778 779 780 782 784 786 788 790 790 791 792 794 795 795 796 796 796 797 797 798 799 800 801 802 803 803 803 803 803 804 804 804 805 805 805 805 806 806 806 807 807
729 731 733 735 737 739 740 741 742 742 744 746 748 751 753 755 757 759 761 763 766 769 771 773 774 775 775 775 777 779 781 783 785 786 787 788 789 790 792 793 794 795 795 795 796 797 797 798 800 800 801 802 803 803 803 803 803 803 803 804 804 804 805 805 805 805 806 806 806
727 730 732 734 736 739 741 742 743 744 745 746 749 751 753 755 757 760 762 764 767 769 771 772 773 774 774 775 776 779 781 783 785 785 786 787 788 790 792 793 794 795 795 795 795 796 797 798 800 800 801 802 802 803 803 803 803 803 803 803 803 803 804 804 805 805 805 805 805
726 729 731 734 736 738 740 742 744 744 745 747 749 751 754 756 758 760 762 765 767 769 770 772 773 773 774 775 778 780 782 784 785 785 786 787 789 790 792 794 795 795 795 795 795 796 797 798 799 800 801 802 802 803 803 803 803 802 802 802 803 803 803 804 804 804 804 804 804
726 729 731 734 736 739 741 742 744 745 746 747 750 752 754 756 758 760 763 765 767 769 771 773 774 775 776 778 780 782 783 784 785 786 787 788 790 792 794 795 795 795 795 795 796 797 798 799 799 800 801 802 802 803 803 803 803 802 802 802 802 803 803 803 803 803 803 803 804
727 729 731 734 737 740 741 743 744 745 746 748 750 752 755 757 759 761 763 765 767 770 771 773 775 777 778 780 781 782 783 784 785 787 788 790 792 794 795 796 796 795 795 795 796 797 798 799 800 800 801 802 802 802 802 802 802 802 802 802 802 802 802 803 803 803 803 803 803
728 730 732 734 737 740 742 743 745 746 747 748 750 752 755 757 760 762 764 766 768 770 771 773 775 777 779 780 781 782 783 785 786 787 789 791 793 795 796 796 796 795 795 795 796 797 798 799 800 800 801 801 802 802 802 802 802 802 802 802 802 802 802 802 802 802 802 802 802
729 731 733 735 737 739 741 743 745 746 747 748 750 753 755 758 760 762 764 766 768 770 771 773 774 776 778 780 781 782 783 785 786 788 790 792 795 796 796 796 796 795 795 795 796 797 798 799 800 800 801 801 801 802 802 802 802 802 801 801 801 801 802 802 802 801 801 801 801
729 731 734 735 737 739 741 743 744 746 747 749 751 753 756 758 760 762 764 766 767 769 771 772 774 775 777 779 780 782 783 785 787 789 791 793 795 795 796 796 795 795 795 795 796 798 799 800 800 800 801 801 801 801 801 801 801 801 801 801 801 801 801 801 801 801 801 800 800
729 731 733 735 737 739 740 742 744 746 747 750 752 754 756 758 760 762 764 766 767 769 770 772 774 775 777 778 780 781 783 785 787 790 792 793 794 795 795 795 795 794 795 795 797 798 799 800 800 800 800 800 800 800 801 801 801 801 800 800 800 801 801 801 800 800 800 800 800
728 731 733 735 737 739 741 743 744 746 748 750 752 755 757 759 760 762 764 766 768 769 770 772 774 776 777 779 780 781 783 785 788 790 791 793 794 794 794 794 794 794 795 796 797 798 799 799 800 800 800 800 800 800 800 800 800 800 800 800 800 800 800 800 800 800 799 799 799
728 730 733 735 737 739 741 743 745 747 749 751 753 755 758 760 761 763 765 766 769 770 771 773 775 776 778 779 780 782 784 786 789 790 791 792 793 793 793 793 793 794 795 796 797 798 799 799 799 799 799 799 799 799 799 799 799 799 799 799 799 799 799 799 799 799 798 798 798
729 731 733 735 738 740 742 744 746 748 750 752 754 756 759 760 762 764 765 767 770 771 773 774 775 776 778 780 781 783 785 787 789 790 791 791 792 792 792 792 792 794 795 796 797 798 799 799 799 799 799 799 799 799 799 799 799 799 799 799 798 798 798 798 798 798 797 797 797
730 731 734 736 738 740 743 745 747 749 751 753 755 757 760 761 763 765 767 769 771 772 774 775 776 777 778 780 782 784 786 788 789 790 790 790 791 791 791 792 793 794 795 797 797 798 798 798 798 798 798 798 798 798 798 798 798 798 798 798 798 798 797 797 797 796 796 796 796
730 732 735 737 739 742 744 746 748 750 752 755 756 758 760 762 764 766 768 770 772 773 774 775 777 778 779 781 783 785 786 788 789 790 790 790 790 790 790 792 793 795 796 797 797 798 798 798 798 798 798 798 798 798 798 797 797 797 797 797 797 797 796 796 796 795 795 795 795
731 733 736 738 741 743 745 747 749 751 753 755 757 759 761 763 765 767 769 771 772 774 775 776 778 779 780 782 784 785 787 788 789 789 789 789 789 789 790 792 794 795 796 796 797 797 797 797 797 797 797 797 797 797 797 797 797 796 796 796 796 795 795 795 795 794 794 794 794
732 735 737 740 742 744 746 748 750 752 754 756 758 760 762 764 766 768 769 771 773 775 776 778 779 781 782 784 785 786 787 788 787 787 787 787 788 789 791 792 794 795 795 796 796 797 797 797 797 797 797 797 796 796 796 796 796 796 795 795 795 794 794 794 793 793 793 793 793
734 736 739 741 743 745 747 749 751 753 755 757 759 761 763 765 767 768 770 771 773 775 777 779 780 782 784 784 785 786 787 787 786 786 786 787 788 790 791 792 794 795 795 795 796 796 796 796 796 796 796 796 796 795 795 795 795 795 795 794 794 793 793 793 792 792 792 792 792
736 738 740 743 745 746 748 750 752 754 756 759 761 763 765 766 768 769 771 772 774 776 778 780 782 783 784 785 785 786 786 785 785 785 785 787 788 790 791 792 793 794 795 795 795 795 795 796 796 796 795 795 795 795 795 795 794 794 794 793 793 793 792 792 792 792 792 792 792
738 740 742 744 746 748 750 751 753 755 758 760 762 764 765 767 769 770 772 773 775 776 779 780 782 784 784 785 785 785 785 784 784 785 786 787 789 790 791 792 793 794 794 795 795 795 795 795 795 795 795 795 794 794 794 794 794 793 793 793 792 792 792 791 791 791 791 791 791
740 741 743 745 747 749 751 753 755 757 759 761 763 765 766 768 770 771 773 774 776 777 779 781 782 783 784 784 784 784 784 784 785 785 786 788 789 790 791 792 793 793 794 794 794 795 795 795 795 795 795 794 794 794 793 793 793 792 792 792 791 791 791 791 791 791 790 790 790
741 743 745 747 749 750 753 755 757 759 760 762 764 765 767 769 771 772 774 775 777 778 780 781 782 783 783 784 784 784 784 784 785 786 787 788 789 790 791 792 792 793 793 794 794 794 794 794 794 794 794 794 793 793 793 792 792 792 791 791 791 791 791 790 790 790 790 790 789
743 745 746 748 750 752 755 757 759 760 762 763 765 766 768 770 772 773 775 776 778 779 780 781 782 782 783 783 783 783 784 785 785 786 787 788 789 790 791 791 792 792 793 793 793 794 794 794 793 793 793 793 793 792 792 792 791 791 791 791 790 790 790 790 790 790 789 789 789
744 746 748 750 752 755 757 759 761 762 764 765 766 768 769 771 772 774 775 777 779 780 781 781 782 782 783 783 783 784 784 785 786 786 787 788 789 790 790 791 791 792 792 793 793 793 793 793 793 793 793 793 792 792 791 791 791 790 790 790 790 790 790 790 790 789 789 788 788
745 747 749 751 754 756 759 761 762 764 765 766 767 769 770 772 773 775 777 778 780 780 781 781 782 782 782 783 784 784 785 785 786 786 787 788 789 789 790 791 791 792 792 792 793 793 793 793 793 793 792 792 791 791 791 790 790 790 790 790 790 790 790 789 789 789 788 788 787
747 748 750 753 755 758 760 762 764 765 766 768 769 770 771 773 774 776 777 779 780 780 781 781 782 782 783 783 784 784 785 785 786 786 787 788 789 789 790 791 791 792 792 792 792 792 792 792 792 792 792 791 791 790 790 790 790 790 790 790 790 789 789 789 788 788 788 787 787
748 750 751 754 756 759 761 763 765 766 767 769 770 772 773 774 775 776 777 779 780 780 781 782 782 783 783 784 784 784 785 785 786 787 787 788 789 790 790 790 791 791 792 792 792 792 792 792 792 792 791 790 790 790 790 790 789 789 789 789 789 789 789 788 788 787 787 787 786
750 751 752 754 757 760 762 764 766 768 769 770 771 772 773 774 775 776 778 779 780 780 781 782 782 783 783 783 784 784 785 785 786 787 788 788 789 790 790 790 791 791 791 791 791 791 791 791 791 791 790 790 790 790 789 789 789 789 789 789 789 788 788 788 787 787 787 786 786
753 753 753 755 757 760 763 765 767 769 770 771 772 773 774 775 776 777 778 779 780 780 781 782 782 783 783 783 784 784 785 785 786 787 788 789 789 790 790 790 790 791 791 791 791 791 791 791 791 790 790 790 789 789 789 789 789 789 788 788 788 788 787 787 787 786 786 786 785
755 755 755 756 759 762 765 767 769 770 770 771 772 773 774 775 776 778 779 779 780 780 781 781 782 782 783 783 784 785 785 786 787 787 788 789 789 790 790 790 790 790 791 791 791 791 791 790 790 790 790 789 789 789 789 789 788 788 788 788 787 787 787 787 786 786 786 785 785
757 758 758 758 760 763 766 768 769 770 771 772 773 775 775 776 777 778 779 780 780 780 781 781 782 783 783 784 784 785 786 787 787 788 788 789 789 789 789 790 790 790 790 790 790 790 790 790 790 790 790 789 789 789 788 788 788 788 787 787 787 787 787 786 786 786 785 785 784
759 759 760 760 762 764 766 768 770 771 772 773 774 775 776 777 778 779 779 780 780 780 781 782 782 783 784 784 785 785 786 787 787 788 788 788 789 789 789 789 789 790 790 790 790 790 790 790 790 790 790 789 789 788 788 788 788 788 787 787 787 787 786 786 786 785 785 784 784
760 760 761 762 763 765 767 770 771 773 774 775 775 776 777 777 778 779 780 780 780 781 781 782 783 784 784 785 785 786 786 787 787 788 788 788 788 789 789 789 789 789 789 790 790 790 790 790 790 790 789 789 788 788 788 788 788 788 787 787 787 787 786 786 785 785 784 784 783
Wind_Speed
29 32 33 33 31 31 30 28 28 29 30 30 29 28 29 29 28 27 27 28 28 27 27 28 30 31 33 35 36 36 35 35 35 35 33 32 30 29 28 27 26 25 24 22 21 20 19 17 16 15 14 13 12 11 10 9 8 7 7 7 8 8 8 8 7 7 6 6 5
30 33 33 32 31 30 29 28 28 29 29 30 29 29 30 30 29 28 27 27 28 27 27 28 29 31 33 34 35 35 35 35 35 34 33 31 30 29 28 27 26 25 23 22 21 20 19 17 16 15 14 13 12 12 11 9 8 7 7 7 8 8 8 7 7 7 6 6 6
31 33 33 33 32 31 29 28 28 29 30 29 29 29 30 30 28 27 27 27 27 27 27 28 29 31 33 33 34 34 35 35 35 34 33 31 30 29 28 27 26 24 23 22 21 19 18 17 16 15 14 13 13 12 11 10 8 7 7 7 7 7 6 6 6 6 6 7 7
31 32 33 33 33 32 31 30 30 31 31 29 28 29 30 29 27 26 27 27 27 27 27 28 28 30 32 33 33 33 33 33 34 33 32 31 30 29 28 26 25 24 22 21 20 18 17 16 15 14 14 13 13 12 11 9 8 7 7 7 6 6 6 6 6 6 6 6 7
31 31 32 33 35 34 33 32 33 32 31 29 28 28 29 27 26 25 26 26 26 26 27 27 27 28 30 32 33 32 32 32 32 32 31 30 29 28 27 25 24 23 22 20 19 18 16 15 14 13 13 12 12 11 10 8 8 7 6 6 6 6 6 6 6 6 6 6 7
31 31 31 32 34 34 33 33 33 32 31 29 28 28 28 26 25 25 25 26 27 27 27 27 26 27 29 32 32 32 32 32 32 31 30 30 29 27 26 25 23 22 21 19 18 17 16 15 14 13 13 12 11 10 8 8 7 6 6 6 5 5 6 6 6 6 6 6 7
32 31 31 31 32 32 32 32 33 32 30 29 29 29 28 26 25 26 27 27 28 27 27 27 26 28 30 32 32 32 32 32 31 30 30 29 28 27 25 24 23 21 20 18 17 16 15 14 14 13 13 12 11 10 9 8 7 6 5 5 5 5 5 4 5 5 6 6 7
32 31 31 31 31 31 32 32 32 31 30 28 29 30 29 27 26 27 28 29 29 28 28 28 28 29 31 31 31 31 31 31 31 30 30 29 28 26 25 24 23 21 19 18 16 15 14 13 12 13 13 13 12 11 10 9 7 6 5 5 4 4 5 4 5 5 6 7 8
31 31 31 31 31 31 31 31 31 30 29 28 29 29 28 27 27 28 29 30 30 29 29 29 29 29 29 30 29 29 29 30 31 31 30 29 28 26 25 24 23 21 19 17 16 14 13 12 12 12 12 12 12 11 10 9 7 6 5 4 4 4 5 5 5 6 7 7 8
31 30 30 30 30 30 30 30 29 29 28 28 28 28 27 27 27 28 30 31 30 29 28 28 28 27 27 28 28 28 29 31 31 31 31 29 28 27 26 24 23 21 20 17 15 14 13 12 12 11 11 11 11 10 9 8 7 6 4 4 3 4 4 5 5 6 7 8 8
31 31 30 30 30 30 30 28 27 26 26 26 27 27 26 26 27 29 31 31 29 28 27 26 26 26 27 27 28 29 30 32 32 31 30 29 27 26 25 23 22 21 19 17 15 14 13 12 11 11 10 9 9 8 8 7 5 5 4 3 3 3 3 4 5 6 7 7 8
32 31 31 31 31 30 29 27 25 24 25 25 25 25 25 26 28 30 30 29 27 25 25 25 25 25 26 28 29 30 31 32 31 30 29 28 26 24 23 22 21 19 18 16 15 13 12 11 11 10 9 8 8 7 6 5 4 4 3 3 3 4 4 5 5 6 7 7 8
32 32 32 31 30 29 27 25 23 23 24 24 25 24 25 26 28 30 29 27 25 23 23 24 25 25 26 27 29 30 30 30 29 28 27 26 24 23 21 20 19 18 17 15 14 13 12 11 10 10 9 8 7 7 6 5 4 4 4 4 4 4 5 5 6 6 7 7 8
32 32 32 31 30 27 25 23 22 22 23 24 24 24 25 26 28 28 27 25 23 23 24 25 26 26 26 27 28 28 28 28 27 26 25 23 22 21 20 19 18 17 16 15 14 13 12 12 11 10 9 9 8 7 6 6 5 5 5 5 5 5 6 6 6 7 8 8 9
32 31 31 30 28 26 24 23 22 22 23 24 24 25 25 26 26 26 25 24 24 25 26 27 27 27 26 25 25 25 26 26 25 24 23 22 21 20 19 18 17 17 16 15 14 13 12 12 11 10 9 9 8 7 6 6 5 5 5 5 6 6 7 7 7 8 8 9 10
31 30 29 29 27 25 24 22 22 23 24 25 25 25 25 25 25 25 25 25 25 26 27 27 26 25 24 23 23 24 25 25 25 24 23 22 21 20 19 18 17 16 15 14 13 12 12 11 10 9 8 7 7 6 5 5 4 5 5 5 6 6 7 7 8 8 9 10 10
30 29 28 27 26 25 24 23 23 24 25 25 25 25 25 25 25 25 25 25 26 26 26 26 25 24 24 23 23 24 25 25 25 24 22 22 20 19 18 17 15 14 13 13 12 11 10 10 9 8 7 6 5 4 3 3 3 3 4 4 5 6 7 8 8 9 10 10 11
29 28 27 26 25 25 24 24 25 25 25 26 25 25 25 26 26 26 25 24 25 25 25 25 24 24 25 25 25 26 26 26 25 24 23 21 20 19 17 16 15 14 13 12 11 11 10 8 7 6 5 4 4 3 3 3 3 3 4 4 5 6 7 8 9 9 10 11 11
28 27 26 25 25 24 25 25 26 26 26 26 26 26 26 26 27 26 25 24 24 25 25 26 26 26 26 26 27 27 27 26 25 24 23 21 20 18 17 16 14 13 12 12 11 10 9 8 7 6 5 4 3 3 3 3 4 4 4 5 6 6 7 8 8 8 9 10 10
27 27 26 25 25 25 26 26 26 26 26 26 26 26 26 26 26 25 25 25 24 25 26 27 27 27 27 27 27 27 27 26 25 24 23 21 20 18 16 15 14 13 12 11 10 9 8 7 6 5 4 4 3 4 4 4 5 5 5 6 6 7 7 8 8 8 8 8 9
26 26 26 25 25 26 26 26 26 27 26 26 26 26 26 26 25 25 25 25 25 26 26 27 28 29 29 28 28 28 27 26 25 24 22 21 19 17 16 14 13 12 11 10 9 8 6 5 4 3 3 3 3 4 4 5 5 6 6 7 7 8 8 8 9 9 9 9 9
25 25 26 26 26 27 27 27 27 27 27 27 26 26 26 26 25 25 25 25 26 26 27 28 29 29 29 29 29 28 27 25 24 23 21 20 18 16 14 13 12 11 10 8 7 5 4 3 2 1 2 2 3 4 5 5 6 7 7 8 9 9 9 10 10 10 10 10 10
26 26 26 27 27 27 28 28 28 28 27 27 27 27 26 26 26 25 26 26 27 27 28 28 29 29 29 29 28 27 26 24 23 21 20 18 17 15 14 12 11 10 8 7 5 4 2 2 1 0 1 2 3 4 5 6 7 8 9 9 10 10 11 11 11 11 10 10 10
27 27 27 27 28 28 28 28 28 28 28 28 27 27 27 26 26 26 26 27 27 28 28 28 29 29 28 28 27 26 25 23 22 20 19 17 16 14 13 11 10 9 7 5 4 3 2 1 1 1 2 3 4 5 6 7 7 8 9 10 10 11 11 11 11 10 9 8 8
28 29 29 29 29 29 29 29 29 28 28 28 28 27 27 27 27 27 27 28 28 28 29 29 28 28 27 26 25 24 23 22 21 20 18 17 15 13 12 10 9 7 6 4 3 3 2 2 2 3 3 4 5 6 6 6 7 8 8 9 10 11 11 10 9 8 7 7 7
29 29 29 29 29 29 29 29 29 29 28 28 28 27 27 27 27 28 28 29 29 29 29 29 28 27 26 25 24 23 22 20 19 18 17 16 14 13 11 9 8 6 5 4 3 3 3 3 3 4 4 5 6 6 7 7 8 8 9 9 10 10 10 10 9 7 6 6 7
29 29 29 29 29 29 29 29 29 29 28 28 27 27 27 27 28 29 30 30 30 29 29 28 27 26 25 24 23 22 21 19 18 17 16 15 13 12 10 8 6 5 4 3 2 2 2 3 3 3 4 5 6 7 8 8 9 9 9 10 10 9 9 9 8 7 7 7 8
29 29 29 29 28 28 28 28 28 28 28 27 27 27 27 28 29 29 30 30 30 29 28 27 27 26 25 24 22 21 20 18 17 16 14 13 12 11 9 7 5 4 2 1 1 1 2 3 3 3 4 5 6 7 8 9 9 10 10 9 9 8 8 8 8 8 8 9 9
28 28 28 28 28 28 28 28 27 27 27 27 27 27 28 28 29 30 30 29 29 28 27 27 26 25 24 23 22 20 19 18 16 15 14 12 11 9 7 6 4 3 2 1 0 1 2 3 4 4 4 5 6 8 9 9 10 10 9 8 8 7 7 7 8 8 9 10 10
28 28 28 28 27 27 27 27 26 26 26 26 27 28 28 29 29 29 28 28 28 28 27 26 25 24 23 22 21 20 18 17 15 14 13 11 10 8 6 4 3 3 2 2 1 1 2 4 5 5 5 6 7 8 9 9 9 9 8 7 7 7 7 8 8 9 10 10 10
27 27 27 27 27 26 26 26 26 26 26 26 27 27 28 28 27 27 27 27 27 27 26 25 24 23 22 21 20 19 18 16 14 13 11 10 9 7 5 4 3 3 3 2 1 1 2 4 6 6 6 6 7 8 9 8 8 7 7 6 6 7 7 8 9 10 10 10 9
28 28 27 27 26 25 25 25 25 25 25 26 27 27 27 27 27 27 27 27 27 26 25 24 23 22 21 19 18 17 16 14 13 11 10 9 8 7 5 4 3 3 3 2 1 1 3 5 6 6 6 6 7 8 8 8 7 6 5 5 6 7 8 9 9 9 9 8 8
29 29 28 27 26 25 25 24 24 25 25 26 26 26 27 27 27 27 27 27 26 25 24 23 22 21 20 18 17 15 14 13 12 11 10 9 8 7 6 4 4 3 3 2 0 2 4 5 6 6 6 6 7 8 8 7 6 5 5 5 6 6 8 8 9 9 8 8 8
30 30 29 27 26 25 24 24 24 24 25 25 26 27 27 28 28 27 27 26 25 23 22 21 20 19 17 16 15 14 13 12 11 11 10 9 9 7 6 5 4 4 3 1 1 2 4 5 5 6 6 7 8 8 8 7 5 5 4 5 5 6 7 8 8 8 8 8 8
30 30 29 28 26 25 24 24 24 25 25 26 26 27 27 28 27 27 26 25 23 22 20 19 18 17 16 15 14 13 13 12 12 11 10 9 8 7 7 6 5 3 2 0 1 2 4 5 5 5 6 7 8 9 8 7 5 5 5 5 6 6 7 7 8 8 8 9 9
28 29 30 29 28 26 25 25 25 26 26 26 26 27 27 27 27 26 25 23 22 20 19 18 16 16 15 14 13 12 12 11 11 10 9 8 8 7 6 6 5 4 2 1 2 3 4 4 5 5 6 7 8 9 8 6 5 5 5 5 6 7 7 8 8 8 9 9 10
26 28 30 30 29 27 26 26 26 26 26 26 27 27 27 26 25 24 23 21 21 20 18 17 15 15 14 13 12 11 11 10 10 9 8 7 6 5 5 4 4 4 3 2 2 3 4 5 5 5 6 7 8 9 8 6 5 5 5 6 6 7 8 8 9 9 10 10 11
24 26 28 29 29 27 26 26 26 26 26 27 27 27 26 25 24 22 21 20 19 18 17 16 14 13 13 12 11 11 10 9 8 8 7 6 5 4 3 3 4 4 3 2 2 3 4 5 5 5 6 7 8 8 8 7 6 6 6 6 7 8 8 9 10 11 11 12 12
23 25 27 29 29 28 27 26 26 27 27 27 26 25 24 23 22 20 18 17 17 16 16 15 14 13 12 11 11 10 9 8 7 6 5 4 4 4 3 3 3 3 3 2 3 4 4 5 5 5 5 7 8 8 8 7 6 7 7 7 8 9 10 10 11 12 12 13 13
24 25 27 29 30 29 28 28 27 27 26 26 25 24 23 22 20 18 17 15 15 15 15 14 13 12 11 10 10 9 8 7 6 4 3 3 3 3 3 3 3 3 2 2 3 4 4 5 4 4 5 6 7 8 8 8 7 7 8 8 9 10 11 12 12 13 13 13 13
26 27 28 29 30 30 29 28 27 26 25 24 23 23 21 20 19 18 16 15 15 14 14 13 12 11 10 9 8 7 6 5 4 3 2 2 2 2 3 2 2 2 1 1 2 3 4 4 4 4 4 6 7 8 8 8 8 8 8 9 10 11 12 13 13 13 13 13 13
Wind_Direction
177 174 173 173 173 174 174 174 175 175 175 174 174 175 176 177 178 179 181 181 181 179 178 176 176 175 175 176 178 180 180 179 178 177 175 174 174 174 174 173 173 173 172 172 171 169 167 166 164 162 162 164 167 170 171 173 176 178 180 181 182 186 191 198 205 212 218 224 232
177 175 174 173 173 173 172 172 173 174 175 176 176 176 177 177 178 179 180 180 180 179 177 176 176 176 176 176 178 179 180 179 177 175 174 173 174 174 174 174 174 174 173 173 171 169 167 165 164 163 164 167 171 174 175 177 180 182 182 181 183 188 194 201 207 214 219 221 226
178 176 174 173 173 172 171 171 172 173 174 175 176 177 177 177 177 177 178 179 179 178 176 175 176 176 176 175 177 179 179 178 175 173 172 172 173 175 175 175 174 175 174 172 170 167 165 164 163 164 167 172 176 178 178 178 180 180 178 178 181 188 196 204 213 220 224 227 229
177 175 173 173 173 173 173 172 172 172 172 173 174 175 176 174 174 175 177 178 178 177 176 174 174 174 174 175 176 178 178 176 173 172 171 172 174 175 175 175 175 175 174 172 168 165 162 162 163 167 171 176 180 181 180 177 175 173 172 175 182 191 202 213 221 229 233 234 236
177 176 175 175 175 175 174 173 172 171 170 171 171 172 172 172 172 174 175 176 176 176 175 172 169 170 173 175 176 176 175 173 172 171 172 173 175 175 175 175 176 175 173 170 166 162 160 160 163 168 173 179 181 181 179 176 173 170 170 177 187 197 209 219 229 236 239 241 243
177 176 176 176 175 175 174 173 171 169 169 169 169 169 169 170 171 171 172 174 175 174 172 169 168 169 171 174 174 173 172 170 170 171 173 175 175 175 175 175 175 175 172 169 165 161 159 159 161 165 170 174 176 177 178 178 177 174 175 180 190 202 213 222 231 239 243 246 248
176 175 175 175 174 173 171 170 168 168 168 169 169 168 168 170 170 171 172 173 173 171 168 167 168 169 171 172 171 171 169 168 168 171 174 175 175 174 173 174 174 173 172 169 165 162 160 159 160 162 165 168 171 175 180 185 186 185 183 186 193 203 214 225 238 247 251 254 255
173 174 174 173 173 171 169 167 165 166 167 168 168 168 168 169 169 170 171 171 170 168 167 168 169 170 170 169 169 167 166 167 169 172 175 175 173 172 172 172 172 172 171 169 166 163 161 160 160 161 164 168 171 177 184 190 193 191 189 189 193 200 210 223 239 249 255 259 262
169 171 171 170 169 167 166 164 164 164 165 166 167 167 168 168 167 168 169 169 167 166 167 169 169 168 166 166 165 165 166 169 171 173 174 173 171 170 170 170 170 171 171 170 167 164 162 161 161 163 166 171 176 181 188 193 195 194 193 191 193 198 207 218 231 243 253 260 265
165 166 165 164 163 163 162 161 162 163 163 162 164 165 165 165 165 166 166 165 164 164 166 168 167 165 163 164 165 167 169 171 172 172 172 170 169 169 169 169 170 171 171 170 167 165 162 161 160 162 167 173 179 184 189 193 195 196 197 199 203 210 217 225 234 244 253 262 268
162 161 160 158 158 158 158 158 159 159 158 158 159 160 161 162 163 164 163 160 160 162 164 165 165 163 162 164 167 169 171 172 171 170 169 168 168 168 168 170 170 170 169 168 166 163 162 160 159 160 164 169 177 182 187 192 197 203 209 219 231 241 247 249 253 259 264 269 274
157 156 155 154 154 155 156 155 155 154 154 154 155 156 158 160 161 160 159 157 158 160 162 163 163 163 162 164 167 169 170 169 168 167 165 165 165 166 168 169 170 169 166 164 162 160 159 158 158 159 162 166 172 179 185 192 200 210 220 232 246 256 262 265 268 271 274 276 279
152 150 150 151 152 153 153 151 151 150 150 150 152 153 155 157 159 158 156 155 157 159 161 162 163 162 161 162 164 166 166 165 164 163 162 162 163 164 166 168 167 165 162 160 158 158 157 157 159 162 165 168 173 178 184 191 199 207 216 225 237 247 257 264 269 273 275 277 278
146 146 147 148 150 150 149 147 147 147 147 147 149 150 151 153 156 156 155 155 156 157 158 159 161 161 161 161 161 161 161 161 160 159 159 159 161 163 165 165 164 161 159 157 157 158 159 160 163 167 170 173 176 180 186 194 202 211 219 228 238 248 258 266 271 274 277 279 280
143 144 146 147 148 148 146 145 144 144 144 145 146 146 148 149 152 154 155 155 155 155 156 157 159 160 159 158 157 156 157 157 157 157 157 158 161 163 164 164 162 159 158 157 159 161 164 166 169 173 176 179 183 188 195 204 215 226 236 244 253 261 267 273 277 279 282 283 284
141 143 145 146 146 146 145 144 143 143 143 142 143 144 145 147 150 153 154 154 154 154 155 156 155 154 154 154 153 153 154 155 156 156 157 159 162 164 164 163 161 158 157 157 159 163 167 170 174 178 182 185 190 197 206 219 231 244 253 261 268 273 278 281 283 285 286 287 287
142 143 145 145 145 144 143 142 142 142 141 140 142 143 145 147 150 151 152 152 152 152 152 152 150 149 149 151 151 152 153 154 156 157 158 161 163 164 163 161 158 155 153 153 156 159 164 169 173 178 182 187 194 203 217 234 249 263 272 279 283 286 287 289 289 290 290 290 290
142 143 143 143 141 140 140 141 141 140 139 140 142 144 145 147 149 149 149 149 149 149 149 148 148 149 150 150 151 152 154 155 155 158 160 162 163 162 160 157 153 149 148 149 152 156 161 166 170 175 182 188 197 212 229 248 263 274 282 288 291 292 293 293 294 294 294 294 294
139 139 139 138 137 136 137 138 138 138 139 141 141 143 144 146 147 146 145 146 147 147 147 148 149 150 151 151 151 152 154 154 156 158 160 161 161 160 157 153 149 147 147 150 154 159 164 169 175 181 188 196 208 222 235 246 255 265 273 281 285 289 290 292 294 295 298 300 300
135 134 134 133 133 133 134 135 136 137 138 138 139 140 142 144 143 143 143 144 146 147 147 148 150 152 152 151 150 151 153 155 157 158 160 160 160 158 156 152 149 149 151 155 160 166 171 176 183 190 199 210 222 233 238 244 250 255 262 268 274 280 283 286 289 293 297 301 305
129 130 130 130 131 132 133 134 134 135 135 135 135 137 139 139 139 140 141 143 145 146 147 148 150 151 151 150 149 150 152 156 158 158 159 159 158 156 153 151 149 150 154 159 163 168 173 178 187 201 217 235 243 247 250 253 256 259 262 266 270 274 278 282 286 290 293 298 303
125 126 127 128 129 130 131 132 133 133 133 133 133 134 135 135 136 137 139 140 142 144 146 148 149 149 148 148 148 150 152 155 157 158 157 156 154 151 148 146 146 147 150 152 154 157 161 167 185 221 256 266 266 265 266 268 269 270 271 272 273 275 277 280 283 287 290 293 297
124 124 125 127 128 129 131 131 131 131 131 131 131 132 132 132 133 134 136 139 141 144 145 146 146 147 147 148 150 151 153 154 154 155 153 151 148 144 141 139 138 138 137 137 135 136 133 132 131 320 307 298 289 286 284 283 282 281 281 280 280 281 281 283 285 288 291 294 297
123 124 125 127 128 129 130 130 130 130 129 129 130 130 130 131 132 134 136 138 140 141 142 143 143 145 147 150 152 153 153 152 151 150 147 143 139 135 133 131 129 128 127 125 121 111 96 71 37 354 330 315 304 297 293 290 288 288 289 290 290 290 290 289 290 291 295 300 305
123 124 125 127 128 129 129 129 128 128 128 129 129 129 130 132 133 134 135 137 138 140 141 142 143 145 148 150 152 152 152 151 148 144 140 135 131 128 126 124 123 121 118 113 99 78 52 26 0 338 322 311 303 297 295 295 296 298 299 300 300 301 300 298 296 296 300 309 318
124 124 125 127 127 128 128 127 127 127 128 128 129 130 131 133 133 134 135 136 139 141 142 142 144 146 149 150 151 150 149 146 142 138 133 130 127 124 121 118 115 112 109 99 82 58 35 13 349 330 318 310 305 305 305 306 307 307 308 308 308 309 309 308 307 306 308 315 323
123 123 125 126 125 125 126 126 126 127 127 129 130 131 132 132 133 134 136 137 139 140 141 143 145 147 149 149 148 145 142 138 134 130 127 126 124 122 119 114 108 105 102 97 80 49 25 11 0 347 330 319 313 311 312 312 312 312 312 313 314 315 316 317 317 316 316 318 322
122 123 123 123 123 124 125 125 126 127 128 129 130 131 131 132 133 135 136 137 138 139 141 143 146 147 147 144 141 138 133 129 127 125 124 123 123 122 118 114 109 107 110 114 99 27 10 11 13 9 352 330 317 313 313 313 313 314 315 317 319 322 324 326 325 324 321 321 321
122 122 122 122 123 123 124 125 126 127 128 129 129 130 130 132 135 136 136 137 138 139 141 143 144 143 140 137 133 129 126 124 123 124 125 126 126 125 122 118 115 117 128 143 144 5 5 6 7 10 2 341 322 314 313 314 315 316 318 322 326 330 333 333 331 328 325 323 322
121 121 121 121 122 122 123 124 126 127 128 128 129 130 131 133 134 135 136 137 139 140 142 142 140 137 134 131 128 125 124 123 123 124 127 129 130 131 129 125 121 123 128 136 127 24 4 0 358 2 1 346 326 317 316 317 318 320 323 328 334 338 339 337 333 330 327 326 325
120 119 119 119 120 121 123 125 127 128 129 129 130 130 131 132 132 133 136 138 139 140 140 138 135 131 129 127 125 124 123 123 124 124 127 130 134 136 135 128 121 121 128 136 126 24 357 352 352 356 359 349 329 321 320 322 322 324 329 335 340 342 341 337 334 331 331 331 332
119 118 118 118 119 121 124 126 128 128 129 128 129 129 130 131 133 135 137 138 139 138 136 133 130 128 126 125 124 123 123 123 123 124 126 130 134 136 134 128 124 129 140 150 148 346 343 345 348 355 356 346 331 327 327 328 328 330 335 341 345 345 342 339 337 336 338 339 338
119 119 119 119 120 123 125 126 127 127 127 128 129 130 131 133 134 136 137 137 136 134 132 130 128 127 126 126 125 124 123 122 121 120 122 125 128 131 133 135 142 152 162 173 250 327 335 341 350 357 356 343 334 334 335 334 333 335 341 347 349 348 346 344 344 345 346 345 341
121 121 120 120 122 123 125 125 126 126 127 128 130 132 134 135 135 135 135 134 133 132 130 128 127 127 126 125 124 122 120 117 115 115 116 119 124 131 137 144 152 159 170 195 301 328 339 346 356 2 356 342 338 340 342 341 340 343 349 353 355 353 351 350 350 350 349 345 340
123 123 123 122 123 123 124 125 126 128 129 130 132 133 135 135 134 133 133 132 131 130 128 127 126 124 122 120 117 115 113 112 111 113 117 124 132 138 143 144 144 145 151 240 335 346 353 358 6 7 356 343 342 344 346 346 346 352 357 360 359 357 354 352 351 349 346 342 337
125 124 123 123 123 124 126 128 129 131 132 132 133 133 133 133 132 132 133 132 131 128 126 125 123 120 117 114 111 109 108 110 113 119 127 136 143 146 145 144 143 139 129 73 23 11 8 8 13 6 351 340 343 346 349 350 353 358 2 2 360 356 353 350 347 344 340 336 334
125 125 124 124 124 126 129 131 132 133 132 132 131 131 131 131 131 132 133 131 129 126 123 121 118 115 113 111 110 109 109 112 120 131 139 143 143 144 145 152 157 155 141 95 51 28 18 14 16 7 352 341 345 349 353 356 0 5 4 2 357 353 349 346 341 337 334 332 331
125 125 125 125 126 128 131 132 132 131 130 130 130 131 132 132 131 131 131 129 125 122 120 117 115 114 113 112 114 116 119 123 130 137 140 134 122 118 127 146 159 161 148 104 60 35 22 15 17 11 358 347 349 353 357 1 5 7 3 357 352 348 344 340 336 332 330 329 329
127 126 126 127 128 129 130 130 129 129 129 130 131 131 131 130 129 127 126 123 120 118 117 117 116 117 117 119 123 128 131 133 133 133 128 116 98 86 89 109 130 139 132 100 58 34 22 17 20 17 3 351 352 356 0 4 6 5 360 353 347 343 339 337 334 332 331 330 330
128 128 128 128 128 129 129 129 129 130 131 132 131 131 129 127 125 123 120 118 116 115 116 119 121 122 123 126 129 132 133 131 129 123 113 98 76 63 61 72 90 104 105 86 45 27 22 21 23 22 8 355 355 359 3 5 6 2 357 351 346 342 340 337 335 334 333 333 333
129 129 128 128 129 130 131 131 132 133 133 132 131 129 127 125 124 123 121 120 120 121 123 126 129 130 130 130 129 128 128 126 124 117 103 75 50 37 37 40 51 61 67 46 23 20 23 22 25 23 14 2 358 359 3 5 3 358 353 349 344 342 339 338 336 335 334 333 333